Temperature
13 13 13 14 14 14 14 14 14 14 15 15 15 15 15 15 15 15 15 15 15 15 14 14 14 15 14 14 14 14 14 14 14 14 14 14 14 14 14 14 14 14 14
13 13 13 13 13 14 14 14 14 14 14 14 15 15 14 15 15 15 14 15 14 14 14 14 14 14 14 14 14 14 14 14 14 14 14 14 14 14 14 14 14 14 14
13 13 13 13 13 14 14 14 14 14 14 14 14 14 14 14 15 14 14 14 14 14 14 14 14 14 14 14 14 14 14 14 14 14 14 14 14 14 14 14 14 14 13
12 12 13 13 13 13 13 14 14 14 14 14 14 14 14 14 14 14 14 14 14 14 14 14 14 14 14 14 14 14 14 14 14 14 14 14 14 14 13 13 13 13 13
12 12 12 12 13 13 13 13 13 14 14 14 14 14 14 14 14 14 14 14 14 14 14 14 14 14 13 13 13 13 13 13 13 14 14 13 13 13 13 13 13 13 13
12 12 12 12 12 13 13 13 13 13 13 13 13 13 13 14 14 14 13 13 13 13 13 13 13 13 13 13 13 13 13 13 13 13 13 13 13 13 13 13 13 13 13
11 12 12 12 12 12 12 13 13 13 13 13 13 13 13 13 13 13 13 13 13 13 13 13 13 13 13 13 13 13 13 13 13 13 13 13 13 13 13 12 12 12 12
11 11 11 12 12 12 12 12 12 13 13 13 13 13 13 13 13 13 13 13 13 13 13 13 13 13 13 13 13 12 12 13 13 13 13 12 12 12 12 12 12 12 12
10 10 11 11 11 12 12 12 12 12 12 13 13 13 13 13 13 13 13 13 13 13 13 13 13 13 13 12 12 12 12 12 12 12 12 12 12 12 12 12 12 12 12
10 10 10 10 11 11 11 12 12 12 12 12 12 12 12 13 13 13 13 12 12 12 12 12 12 12 12 12 12 12 12 12 12 12 12 12 12 12 12 12 12 12 11
10 10 10 10 10 11 11 11 11 11 11 12 12 12 12 12 12 12 12 12 12 12 12 12 12 12 12 12 12 12 12 12 12 12 12 12 12 12 12 12 11 11 11
9 9 9 10 10 10 10 10 11 11 11 11 11 11 12 12 12 12 12 12 12 12 12 12 12 12 12 11 11 11 11 11 11 11 11 11 11 11 11 11 11 11 11
8 9 9 9 9 9 10 10 10 10 10 10 10 11 11 11 11 11 11 11 11 11 11 11 11 11 11 11 11 11 11 11 11 11 11 11 11 11 11 11 11 11 11
8 8 8 8 9 9 9 9 10 10 10 10 10 10 10 10 11 11 11 11 11 11 11 11 11 11 11 11 11 11 11 11 11 11 11 11 11 11 11 11 11 10 10
7 7 8 8 8 8 8 9 9 9 9 9 10 10 10 10 10 10 10 10 10 10 10 10 10 10 10 10 10 10 10 10 10 10 10 10 11 10 10 10 10 10 10
6 7 7 7 7 8 8 8 9 9 9 9 9 9 9 10 10 10 10 10 10 10 10 10 10 10 10 10 10 10 10 10 10 10 10 10 10 10 10 10 10 10 10
6 6 6 7 7 7 7 8 8 8 8 9 9 9 9 9 9 9 9 9 9 9 9 9 9 9 9 9 9 9 9 9 10 9 10 10 10 10 10 10 10 10 9
5 5 6 6 6 6 7 7 7 8 8 8 8 8 8 8 9 9 9 9 9 9 9 9 9 9 9 9 9 9 9 9 9 9 9 9 9 9 9 9 9 9 9
5 5 5 6 6 6 6 6 7 7 7 7 7 7 8 8 8 8 8 8 8 8 8 8 8 8 8 8 8 8 8 8 9 9 9 9 9 9 9 9 9 9 9
4 5 5 5 5 5 6 6 6 6 6 7 7 7 7 7 8 7 8 8 8 8 8 8 8 8 8 8 8 8 8 8 8 8 8 8 8 8 8 9 9 9 9
4 4 4 5 5 5 5 5 5 6 6 6 6 6 7 7 7 7 7 7 7 7 7 7 7 7 7 7 7 7 7 7 7 7 8 8 8 8 8 8 8 8 8
3 3 4 4 4 4 5 5 5 5 5 6 6 6 6 6 6 7 7 7 7 7 7 7 7 7 7 7 7 7 6 7 7 7 7 7 7 7 7 7 8 8 8
3 3 3 3 3 4 4 4 4 4 4 5 5 5 5 5 6 6 6 6 6 6 7 6 6 7 7 6 6 6 6 6 6 6 7 7 7 7 7 7 7 7 7
2 2 3 3 3 3 3 4 4 4 4 4 4 4 4 5 5 5 6 6 6 6 6 6 6 6 6 6 6 6 6 6 6 6 6 6 6 6 7 7 7 7 7
2 2 2 2 3 3 3 3 3 3 3 4 4 4 4 4 4 5 5 5 5 5 6 6 6 6 6 6 6 6 6 6 6 6 5 5 6 6 6 6 6 6 6
2 2 2 2 2 2 2 3 3 3 3 3 3 3 3 4 4 4 4 4 4 5 5 5 5 5 5 5 5 5 5 5 5 5 5 5 5 5 5 6 6 6 6
Wind_Speed
3 6 5 4 5 6 7 7 8 8 9 10 10 11 11 12 13 13 13 13 13 13 14 14 15 15 16 16 17 18 18 18 18 18 18 18 18 18 18 18 17 16 18
4 4 4 4 5 6 7 7 7 8 9 9 9 10 10 11 12 12 12 12 13 13 14 14 15 15 15 16 17 17 17 18 18 18 17 17 17 17 17 17 16 16 17
5 3 3 4 5 5 6 7 7 8 8 8 9 9 9 10 11 12 12 12 13 13 14 14 14 14 15 15 16 16 17 17 16 16 15 14 15 16 16 17 17 17 17
5 4 3 5 5 5 6 6 7 7 8 8 8 8 8 9 11 11 11 12 12 13 13 14 14 14 14 15 15 16 16 16 15 14 12 12 12 15 16 16 16 16 16
6 6 4 5 5 5 6 6 6 7 7 8 8 8 8 8 9 10 11 12 12 12 13 13 13 13 13 14 15 15 15 15 15 13 12 11 11 14 15 15 15 15 16
6 7 5 5 5 6 5 6 6 6 7 8 8 8 8 8 9 9 10 11 12 12 12 12 13 13 13 13 14 15 14 14 13 12 11 11 11 13 15 15 15 15 15
5 6 6 5 6 6 6 5 5 6 7 7 8 8 8 8 8 8 9 10 11 11 12 12 12 12 12 13 13 14 14 13 12 11 10 10 11 13 14 14 14 14 14
4 6 6 6 6 6 6 6 6 5 6 7 7 8 7 7 8 8 8 9 10 10 11 11 12 12 12 12 13 13 12 12 11 10 9 9 11 12 12 13 13 13 13
5 5 6 6 5 6 7 6 6 6 6 6 7 7 7 7 7 8 8 9 10 10 10 10 11 12 12 12 12 12 11 11 10 9 8 9 10 11 11 12 12 12 12
5 5 5 6 5 5 5 6 7 7 6 6 6 7 7 7 7 8 8 8 9 10 10 10 11 12 12 11 11 12 11 10 9 8 8 8 10 10 10 11 11 11 11
4 4 5 5 6 4 4 4 5 6 6 6 6 6 7 6 7 7 7 8 9 9 10 10 11 11 11 11 11 11 10 8 8 7 7 8 9 9 9 9 10 10 11
4 4 4 4 5 5 3 4 4 4 5 6 6 5 5 6 6 7 8 8 9 9 10 10 11 10 10 9 9 9 8 8 7 6 7 8 8 8 8 8 9 9 10
2 3 4 4 4 4 3 3 3 3 4 5 6 6 5 5 7 7 6 7 7 8 8 9 9 8 8 8 7 7 7 7 6 6 7 7 7 7 7 7 8 8 9
2 2 3 4 3 3 3 3 3 3 3 4 4 5 5 4 4 5 4 5 6 6 6 6 6 7 8 8 8 7 7 6 5 5 6 6 6 7 6 6 7 7 8
2 3 3 3 2 2 2 2 2 2 2 3 4 4 4 3 3 4 4 4 5 5 6 5 5 6 6 6 6 6 6 5 5 5 5 6 6 6 6 6 6 7 7
3 3 3 2 2 2 2 1 1 2 2 3 3 3 3 3 2 3 3 3 4 4 5 5 5 5 5 5 5 5 5 5 5 5 4 4 4 5 4 5 5 6 6
2 3 3 2 2 2 2 1 2 2 2 2 2 2 3 3 3 3 3 2 2 3 5 5 5 5 4 4 4 4 4 4 5 4 4 4 3 4 5 5 5 5 6
2 2 3 3 2 1 2 2 2 2 2 2 2 2 2 3 3 3 3 2 2 3 4 3 3 3 3 3 3 2 3 3 4 4 5 4 4 4 4 5 5 5 5
1 1 2 2 2 1 1 2 2 2 2 2 2 2 1 3 3 3 3 2 3 3 3 2 2 3 3 3 3 2 2 2 3 4 4 4 4 5 5 5 5 5 5
1 0 1 2 2 1 1 1 2 2 2 2 2 2 2 2 3 3 2 2 3 3 2 2 2 3 3 3 3 3 2 2 2 3 3 3 4 4 4 4 4 3 4
2 2 1 2 2 1 1 0 1 1 0 1 2 2 2 2 3 3 2 2 2 3 3 3 2 4 2 2 3 2 2 2 2 2 2 2 3 3 3 3 3 3 2
1 1 1 1 2 1 0 1 2 1 1 1 2 2 2 2 2 3 2 2 2 3 3 3 3 3 2 2 2 2 1 0 1 1 1 1 2 3 2 2 3 3 2
2 1 1 1 1 1 0 0 1 1 1 1 1 0 2 2 2 2 2 2 2 4 4 4 3 4 3 1 1 2 2 2 1 1 0 1 1 2 1 1 2 1 1
3 2 2 2 1 1 1 1 2 2 1 1 1 1 1 2 2 1 2 2 2 2 4 4 3 3 4 3 1 1 1 2 2 1 1 1 1 0 0 0 0 1 1
2 2 2 2 2 1 1 1 3 2 1 0 0 1 0 1 1 1 1 1 1 2 3 4 4 3 3 3 2 1 1 1 1 2 2 1 1 1 1 1 1 2 2
2 2 2 3 3 2 1 1 2 2 1 0 0 1 1 1 0 2 1 1 1 1 2 4 4 4 4 3 2 2 2 2 2 1 2 2 2 2 2 1 1 2 3
Wind_Direction
329 333 341 12 43 52 61 78 85 91 93 94 98 104 111 112 111 110 109 105 102 99 99 97 95 94 93 92 90 89 87 84 82 81 81 82 83 82 81 78 76 73 75
322 329 352 23 48 55 64 68 83 93 95 95 98 101 108 113 113 111 110 109 106 104 101 99 97 97 96 94 93 92 89 87 85 84 81 82 84 84 83 80 80 79 78
357 359 14 36 54 62 67 66 79 93 97 96 96 99 102 111 114 112 111 109 108 106 103 100 99 98 97 97 96 95 93 91 88 85 81 79 84 86 85 82 80 80 79
13 17 25 44 62 68 73 72 75 90 99 97 94 95 97 105 113 113 112 110 108 106 104 103 102 100 100 100 100 98 95 92 88 85 77 76 83 89 88 85 82 80 79
20 17 24 48 59 66 78 78 76 85 97 98 95 96 96 97 104 112 112 111 109 108 107 106 106 104 103 103 104 102 97 92 86 82 77 77 81 88 88 86 85 83 81
19 17 23 54 57 62 75 82 78 89 93 97 97 98 98 97 99 103 110 112 111 110 110 109 109 109 107 106 106 104 100 95 87 81 78 80 84 90 90 88 88 86 85
15 16 25 50 59 65 69 70 80 96 94 92 97 99 99 99 100 100 105 113 114 114 112 110 111 111 109 107 108 106 103 99 91 84 81 83 89 93 92 91 89 89 87
21 19 24 41 54 61 70 69 67 95 97 91 92 98 98 99 102 101 107 113 115 114 114 114 114 111 109 108 109 106 105 101 95 89 86 88 94 94 93 92 91 89 88
27 27 24 28 44 51 63 73 69 84 93 89 86 87 93 94 98 104 110 113 116 114 115 118 118 113 110 108 107 105 104 100 96 90 89 92 96 96 97 95 93 92 90
27 26 22 22 30 44 57 64 71 75 81 83 84 82 85 92 95 99 109 112 115 113 112 116 116 113 109 105 104 103 102 96 92 90 93 98 98 98 97 97 96 95 93
10 12 19 19 18 26 54 63 63 68 66 71 76 79 87 91 92 92 95 109 110 110 110 112 115 113 108 104 104 102 99 95 92 92 100 102 101 100 97 100 101 99 96
340 347 7 12 13 16 36 55 58 66 70 65 61 61 76 92 94 92 92 102 103 105 109 109 111 111 105 101 99 100 97 95 93 92 101 102 102 100 98 105 108 106 103
301 333 345 357 11 17 23 44 44 57 70 66 65 61 59 83 89 86 85 90 91 97 101 104 101 105 106 105 100 97 96 94 91 90 95 95 97 101 100 108 116 115 111
307 315 336 350 6 9 25 46 52 52 56 63 65 65 64 73 82 85 82 87 84 89 92 95 99 102 103 103 103 97 93 93 91 91 94 91 95 99 98 104 119 128 123
309 313 320 342 2 10 23 39 51 56 61 63 69 67 67 69 89 89 87 89 83 87 93 90 96 101 101 98 99 98 92 92 94 90 93 90 90 92 94 102 113 129 134
321 321 309 338 359 30 25 50 54 50 60 72 63 60 66 77 92 94 90 86 79 87 92 99 103 106 104 99 92 93 95 96 94 90 90 91 86 83 93 96 102 113 124
306 314 322 337 3 33 28 44 65 52 62 70 61 64 66 81 108 104 90 82 82 93 90 91 86 97 100 96 96 89 91 94 96 92 90 88 88 85 82 85 89 103 113
311 322 326 347 360 17 25 31 54 65 75 67 64 66 60 84 101 116 110 96 108 103 93 91 97 107 106 108 106 94 85 91 94 97 96 90 86 84 80 77 76 89 100
296 316 340 355 3 4 21 37 58 66 68 65 64 56 59 90 98 102 112 105 122 103 87 93 105 118 123 115 110 96 80 84 89 89 86 88 89 86 83 75 65 67 81
65 67 355 9 7 15 33 47 68 62 61 61 63 45 58 84 103 97 99 107 117 113 106 107 124 102 126 122 108 85 70 77 84 89 88 82 87 88 81 74 64 63 68
65 69 26 17 4 32 30 303 188 201 110 75 58 51 69 84 98 103 93 113 118 132 136 129 130 123 113 119 112 91 58 65 80 85 87 85 77 84 85 82 74 73 74
26 62 51 4 1 357 301 237 200 196 196 104 55 58 71 89 105 117 116 124 138 138 132 131 126 138 133 129 128 135 131 56 3 46 65 89 82 83 75 79 78 72 73
349 334 338 340 333 330 337 290 102 84 83 42 7 13 43 74 101 114 133 139 138 156 164 164 149 148 158 165 127 132 152 195 219 330 21 70 77 76 65 75 93 105 96
327 337 358 0 360 65 89 89 121 131 178 245 253 241 25 42 62 103 132 142 146 161 168 176 165 162 159 170 174 103 144 147 161 198 301 351 22 323 268 70 166 186 186
331 343 354 11 21 44 107 118 128 129 165 271 253 138 152 34 34 58 111 117 149 156 169 175 177 168 168 170 172 156 130 100 107 159 213 251 324 299 287 225 194 203 205
353 1 6 21 14 14 49 117 149 156 170 154 280 186 207 208 43 19 32 111 160 168 170 184 184 183 185 175 171 162 157 163 176 168 187 230 251 281 294 291 219 215 217
Height
1524 1525 1526 1527 1528 1528 1529 1530 1531 1531 1532 1533 1534 1535 1536 1537 1537 1538 1539 1539 1540 1541 1541 1542 1542 1543 1543 1543 1544 1544 1544 1545 1545 1546 1546 1547 1547 1547 1548 1548 1548 1548 1548
1523 1525 1525 1526 1527 1528 1529 1530 1531 1532 1533 1533 1534 1535 1536 1537 1538 1538 1539 1540 1541 1542 1542 1543 1543 1544 1544 1545 1545 1545 1546 1546 1547 1547 1548 1549 1549 1549 1549 1550 1550 1550 1550
1523 1524 1525 1526 1527 1528 1529 1529 1530 1531 1533 1534 1535 1535 1536 1537 1538 1539 1540 1541 1542 1542 1543 1544 1544 1545 1545 1546 1546 1547 1547 1548 1548 1549 1549 1550 1551 1551 1551 1552 1552 1552 1552
1523 1523 1524 1525 1526 1527 1528 1529 1530 1531 1533 1534 1535 1536 1536 1537 1538 1539 1540 1541 1542 1543 1544 1545 1545 1546 1546 1547 1548 1548 1549 1549 1550 1550 1551 1551 1552 1553 1553 1553 1553 1553 1554
1522 1523 1524 1525 1526 1526 1527 1528 1530 1531 1532 1533 1535 1536 1536 1537 1538 1539 1540 1541 1542 1543 1544 1545 1546 1546 1547 1548 1549 1549 1550 1550 1551 1552 1552 1553 1553 1554 1554 1554 1555 1555 1555
1522 1523 1523 1524 1525 1526 1527 1528 1529 1530 1531 1533 1534 1535 1536 1537 1538 1539 1540 1541 1542 1543 1544 1545 1546 1547 1548 1549 1550 1550 1551 1552 1552 1553 1553 1554 1555 1555 1555 1556 1556 1556 1557
1522 1522 1522 1523 1524 1525 1526 1527 1528 1529 1531 1532 1533 1535 1536 1537 1538 1539 1540 1541 1542 1544 1545 1546 1547 1548 1549 1550 1550 1551 1552 1553 1553 1554 1555 1555 1556 1556 1557 1557 1557 1557 1558
1521 1522 1522 1523 1524 1524 1525 1526 1527 1529 1530 1531 1533 1534 1535 1536 1538 1539 1540 1541 1542 1543 1545 1546 1547 1548 1549 1550 1551 1552 1553 1553 1554 1555 1556 1556 1557 1558 1558 1558 1558 1559 1559
1520 1521 1521 1522 1523 1523 1524 1525 1526 1527 1529 1530 1532 1533 1534 1536 1537 1538 1539 1540 1542 1543 1544 1546 1547 1548 1549 1550 1551 1552 1553 1554 1555 1556 1556 1557 1558 1558 1559 1559 1559 1559 1560
1519 1520 1521 1521 1521 1522 1523 1524 1525 1526 1527 1529 1530 1532 1533 1534 1536 1537 1539 1540 1541 1543 1544 1545 1547 1548 1549 1550 1552 1553 1554 1555 1555 1556 1557 1558 1559 1559 1559 1560 1560 1560 1561
1518 1518 1519 1519 1520 1521 1521 1523 1524 1525 1526 1527 1529 1530 1531 1533 1534 1536 1538 1539 1540 1542 1543 1545 1546 1547 1549 1550 1551 1553 1554 1555 1556 1557 1558 1559 1559 1560 1560 1560 1561 1561 1561
1515 1516 1517 1517 1518 1518 1520 1521 1522 1523 1525 1525 1526 1528 1530 1531 1533 1535 1536 1538 1539 1541 1543 1544 1545 1547 1548 1549 1551 1552 1554 1555 1556 1557 1558 1559 1559 1560 1560 1561 1561 1561 1562
1513 1514 1515 1515 1516 1516 1518 1519 1520 1522 1523 1524 1525 1526 1528 1529 1531 1533 1535 1536 1538 1540 1541 1543 1544 1546 1547 1549 1550 1552 1553 1554 1555 1556 1558 1559 1559 1560 1560 1561 1561 1562 1562
1511 1511 1512 1513 1514 1515 1515 1517 1518 1519 1521 1522 1523 1525 1526 1528 1529 1531 1533 1534 1536 1538 1540 1542 1543 1545 1546 1548 1549 1551 1552 1554 1555 1556 1557 1558 1559 1559 1560 1561 1561 1562 1562
1509 1509 1509 1510 1511 1512 1513 1514 1515 1517 1518 1519 1521 1523 1524 1526 1527 1528 1530 1533 1535 1537 1539 1540 1542 1544 1545 1547 1548 1550 1551 1553 1554 1555 1556 1557 1558 1559 1560 1561 1561 1562 1562
1506 1506 1507 1508 1509 1510 1510 1512 1513 1514 1516 1517 1519 1521 1522 1524 1525 1526 1528 1531 1533 1535 1537 1539 1541 1542 1544 1546 1547 1549 1550 1552 1553 1554 1555 1556 1557 1558 1559 1560 1561 1562 1562
1503 1504 1504 1505 1506 1507 1508 1509 1510 1512 1513 1515 1517 1518 1520 1522 1524 1525 1526 1529 1531 1533 1535 1537 1539 1541 1543 1544 1546 1548 1549 1551 1552 1553 1554 1555 1556 1557 1558 1559 1560 1561 1561
1501 1501 1502 1502 1503 1504 1505 1506 1508 1509 1511 1513 1514 1516 1518 1520 1522 1523 1525 1527 1529 1531 1533 1535 1537 1539 1541 1542 1544 1546 1547 1549 1550 1551 1553 1554 1555 1556 1557 1558 1558 1559 1560
1499 1499 1499 1500 1500 1501 1502 1503 1505 1507 1508 1510 1512 1514 1515 1517 1519 1520 1522 1525 1527 1529 1531 1533 1536 1537 1539 1541 1542 1544 1546 1547 1548 1550 1551 1552 1553 1554 1555 1556 1557 1557 1558
1497 1497 1497 1498 1499 1499 1500 1501 1503 1504 1506 1507 1509 1511 1513 1514 1516 1518 1520 1522 1524 1527 1529 1531 1533 1535 1537 1539 1541 1542 1544 1545 1546 1548 1549 1550 1551 1552 1553 1554 1555 1555 1556
1496 1495 1496 1497 1496 1497 1498 1498 1499 1501 1502 1504 1506 1508 1510 1512 1513 1515 1517 1520 1522 1524 1526 1529 1531 1533 1535 1537 1538 1540 1542 1543 1544 1545 1547 1548 1548 1549 1551 1552 1552 1553 1554
1494 1494 1494 1495 1494 1495 1495 1496 1497 1498 1500 1501 1503 1505 1507 1508 1511 1512 1515 1516 1518 1521 1523 1526 1528 1530 1532 1534 1536 1537 1539 1542 1542 1543 1544 1545 1546 1547 1548 1549 1550 1551 1551
1491 1492 1492 1492 1493 1493 1493 1494 1495 1496 1498 1499 1501 1502 1504 1506 1507 1509 1511 1513 1515 1517 1520 1522 1525 1527 1529 1531 1534 1535 1537 1537 1538 1540 1541 1542 1543 1545 1546 1546 1547 1548 1549
1489 1490 1490 1490 1490 1490 1491 1491 1492 1493 1494 1495 1497 1499 1501 1503 1504 1506 1508 1510 1512 1514 1516 1519 1521 1524 1526 1528 1530 1532 1534 1535 1536 1536 1538 1539 1540 1542 1543 1544 1545 1546 1546
1489 1488 1488 1488 1488 1489 1489 1489 1490 1491 1492 1493 1494 1496 1498 1500 1501 1503 1505 1507 1509 1511 1513 1516 1518 1521 1523 1525 1527 1528 1530 1532 1533 1533 1533 1535 1537 1538 1540 1541 1542 1542 1543
1487 1487 1487 1486 1487 1487 1487 1487 1488 1489 1490 1491 1491 1493 1494 1496 1498 1500 1502 1504 1506 1508 1510 1512 1515 1517 1520 1522 1524 1525 1526 1528 1529 1530 1530 1531 1533 1535 1536 1537 1538 1539 1539